Regional Weather Roundup
Issued by NWS

Home | Current Version | Previous Version | Text Only | Print | Product List | Glossary Off
Versions: 1 2 3 4 5 6 7 8 9 10 11 12 13 14 15 16 17 18 19 20 21 22 23 24 25 26 27 28 29 30 31 32 33 34 35 36 37 38 39 40 41 42 43 44 45 46 47 48 49 50

000
ASUS43 KLMK 230202
RWRKY
KENTUCKY REGIONAL WEATHER ROUNDUP
NATIONAL WEATHER SERVICE LOUISVILLE KY
1000 PM EDT FRI JUL 22 2016

NOTE "FAIR" INDICATES FEW OR NO CLOUDS BELOW 12,000 FEET
WITH NO SIGNIFICANT WEATHER AND/OR OBSTRUCTIONS TO VISIBILITY.

KYZ001>023-026-027-061>063-070>075-230300-
WESTERN AND SOUTH CENTRAL KENTUCKY

CITY           SKY/WX    TMP DP  RH WIND       PRES   REMARKS
PADUCAH        CLOUDY    78  74  87 CALM      30.00R
HENDERSON      PTCLDY    79  73  83 CALM      30.00R
OWENSBORO      CLOUDY    77  72  84 SE5       30.02R
HOPKINSVILLE   CLOUDY    79  72  80 NW5       30.02R
BOWLING GREEN  MOCLDY    78  73  84 CALM      30.03R
GLASGOW        NOT AVBL
$$

KYZ024-025-028>034-038-045-046-053-230300-
NORTH CENTRAL KENTUCKY

CITY           SKY/WX    TMP DP  RH WIND       PRES   REMARKS
LOUISVILLE/SDF CLOUDY    79  69  71 S7        30.01R
LOUISVILLE/LOU CLOUDY    80  71  74 S6        30.02R
FORT KNOX      MOCLDY    74  72  93 CALM      30.02S
$$

KYZ035>037-039>044-047>052-055>060-089>105-230300-
NORTHEAST KENTUCKY

CITY           SKY/WX    TMP DP  RH WIND       PRES   REMARKS
LEXINGTON      PTCLDY    75  70  84 SW7       30.06R
COVINGTON      PTCLDY    76  72  87 S6        30.02S
FRANKFORT      MOCLDY    79  70  74 S8        30.03R
$$

KYZ054-064>069-076>088-106>120-230300-
SOUTHEAST KENTUCKY

CITY           SKY/WX    TMP DP  RH WIND       PRES   REMARKS
JACKSON        CLOUDY    72  69  90 CALM      30.05R
LONDON         MOCLDY    74  70  87 SW8       30.07R
SOMERSET       LGT RAIN  70  70 100 CALM      30.08S
MIDDLESBORO    CLOUDY    78  73  84 CALM      30.06R
MONTICELLO     RAIN     N/A N/A N/A N3        30.08R
$$





USA.gov is the U.S. government's official web portal to all federal, state and local government web resources and services.